Weather in Tiaret

Algeria     35°22′07″N   1°19′07″E
temp.,
°C
wind,
m/s
gust,
m/s
humid.,
%
clouds,
%
prec.,
mm/h
press.,
hPa
HPBL,
m
20 april, tue
tue2001:00+10sw1147100 0.1 101710
04:00+9wsw1144100 0.0 101610
07:00+9wnw11525 0.0 101610
10:00+15wnw23325 0.0 1016800
13:00+19wnw55292 0.0 10141857
16:00+19nw663175 0.0 10122318
19:00+16nnw4543100 0.0 101386
22:00+12nnw2257100 0.0 101510
21 april, wed
wed2101:00+12ssw0060100 0.0 101410
04:00+10sw006279 0.0 101310
07:00+11sse1162100 0.0 101310
10:00+17w113976 0.0 1013901
13:00+20wnw4433100 0.0 10111752
16:00+20nw5534100 0.0 10101762
19:00+16nnw4652100 0.0 1011161
22:00+12nnw2273100 0.0 101413
22 april, thu
thu2201:00+11n0178100 0.0 101310
04:00+11nw2270100 0.0 101312
07:00+12sw1169100 0.0 101312
10:00+14nw4453100 0.0 1014572
13:00+17nw5648100 0.0 10131027
16:00+17nw6752100 0.0 10131528
19:00+15nw6862100 0.1 1014392
22:00+11nnw228597 0.0 101713
23 april, fri
fri2301:00+9nnw119049 0.0 101610
04:00+8nw119157 0.0 101510
07:00+9nne1187100 0.0 101610
10:00+15nne345072 0.0 1016615
13:00+19nne32360 0.0 10151375
16:00+21nnw22320 0.0 10141784
19:00+19n33445 0.0 101437
22:00+15ene22535 0.0 101611
24 april, sat
sat2401:00+15se4448100 0.0 101544
04:00+13ese3351100 0.0 101422
07:00+14se59505 0.0 1014128
10:00+22se9103188 0.0 1013742
13:00+26sse10112461 0.0 10111649
16:00+26sse13152257 0.0 10092016
19:00+24sse11172765 0.0 1009519
22:00+21se14223485 0.0 1010639